Regional Weather Roundup
Issued by NWS Albany, NY

Home | Current Version | Previous Version | Graphics & Text | Print | Product List | Glossary Off
Versions: 1 2 3 4 5 6 7 8 9 10 11 12 13 14 15 16 17 18 19 20 21 22 23 24 25 26 27 28 29 30 31 32 33 34 35 36 37 38 39 40 41 42 43 44 45 46 47 48 49 50

000
ASUS41 KALY 201510
RWRALY

NEW YORK STATE HOURLY WEATHER ROUNDUP
NATIONAL WEATHER SERVICE ALBANY NY
1100 AM EDT SAT SEP 20 2014

NOTE: "FAIR" INDICATES FEW OR NO CLOUDS BELOW 12,000 FEET WITH NO
SIGNIFICANT WEATHER AND/OR NO OBSTRUCTIONS TO VISIBILITY.

NYZ032-033-038>043-046>054-057>066-NYZ062>081-201600-
EAST


CITY           SKY/WX    TMP DP  RH WIND       PRES   REMARKS
ALBANY         MOSUNNY   65  53  65 S15G24    30.20F
GLENS FALLS    CLOUDY    59  51  75 S8        30.19F
POUGHKEEPSIE   CLOUDY    66  55  67 S6        30.26F
NEWBURGH       PTSUNNY   64  57  77 MISG      30.28F
MONTGOMERY     CLOUDY    66  56  70 VRB3      30.26F
WHITE PLAINS   PTSUNNY   68  56  65 S10       30.28F
ISLIP          MOSUNNY   70  55  59 S10G22    30.27F
NEW YORK CITY  PTSUNNY   71  55  56 S12G21    30.26F
CENTRAL PARK   MOSUNNY   70  56  61 MISG      30.29F
$$

NYZ005>009-017-018-044>046-055-056-201600-
CENTRAL


CITY           SKY/WX    TMP DP  RH WIND       PRES   REMARKS
FULTON         PTSUNNY   68  58  70 S14G24    30.07F
SYRACUSE       CLOUDY    71  58  63 S20G31    30.08F
ROME           CLOUDY    65  56  72 S13G22    30.14F
ELMIRA         CLOUDY    68  59  73 S16G26    30.13F
BINGHAMTON     CLOUDY    61  56  83 S12G18    30.19F
MONTICELLO     CLOUDY    61  55  82 S7        30.28F
$$

NYZ026>034-041>043-201600-
NORTH


CITY           SKY/WX    TMP DP  RH WIND       PRES   REMARKS
WATERTOWN      CLOUDY    69  55  60 S14G29    30.03F
FORT DRUM      NOT AVBL
MASSENA        PTSUNNY   69  57  65 SW23G32   29.99F
SARANAC LAKE   CLOUDY    58  51  78 SW17G28   30.07F
PLATTSBURGH    CLOUDY    60  50  69 S21G26    30.07F
$$

NYZ001>004-010>016-019>021-201600-
WEST


CITY           SKY/WX    TMP DP  RH WIND       PRES   REMARKS
NIAGARA FALLS  PTSUNNY   70  59  68 SW22G30   30.01S
BUFFALO        CLOUDY    71  57  61 SW16G28   30.03F
DUNKIRK        PTSUNNY   70  59  68 S17G28    30.05F
JAMESTOWN      PTSUNNY   64  55  72 S9G16     30.10F
WELLSVILLE     CLOUDY    64  56  75 SW10G21   30.14F
ROCHESTER      PTSUNNY   71  57  61 SW18G29   30.04F
PENN YAN       CLOUDY    67  57  70 S13G20    30.11S
$$

             KEY
       WCI = WIND CHILL INDEX
       VSB = VISIBILITY
       HX  = HEAT INDEX
$$



USA.gov is the U.S. government's official web portal to all federal, state and local government web resources and services.